[[{"header":{"parameterUnit":"m.s-1","parameterCategory":1,"la1":30.2991,"la2":30.254,"lo1":-89.0895,"lo2":-89.0444,"dy":0.0017,"dx":0.0017,"nx":28,"ny":28,"refTime":"2024-02-29T09:00:00:Z","depth":0,"parameterNumber":2,"parameterNumberName":"U-component_of_WINDS"},"data":[0,0,0,0,0,0,0,0,0,0,0,0,0,0,0,0,0,0,0,0,0,0,0,0,0,0,0,0,0,0,0,0,0,0,0,0,0,0,0,0,0,0,0,0,0,0,0,0,0,0,0,0,0,0,0,0,0,0,-4.7097,-4.7097,0,-4.7147,-4.7148,-4.7148,-4.7051,-4.7048,-4.7044,-4.7041,-4.7092,-4.7096,-4.71,0,0,0,0,0,0,0,0,0,0,0,0,0,-4.6913,-4.6917,-4.7097,-4.7097,-4.7098,-4.7147,-4.7148,-4.7149,-4.7051,-4.7047,-4.7044,-4.704,-4.709,-4.7095,-4.7101,0,0,0,0,0,0,0,0,0,0,0,0,0,-4.6981,-4.6918,-4.7097,-4.7055,-4.7052,-4.7147,-4.7148,-4.7149,-4.7052,-4.7047,-4.7043,-4.7038,-4.7089,-4.7095,-4.7101,-4.7238,0,0,-4.7121,-4.7124,0,0,0,0,0,0,0,0,-4.6978,-4.6988,-4.7061,-4.7058,-4.7055,-4.7088,-4.7102,-4.7179,-4.7053,-4.7052,-4.7041,-4.7036,-4.7094,-4.71,-4.712,-4.7241,-4.7243,-4.7122,-4.7126,-4.7129,-4.713,0,0,0,0,0,0,0,-4.6973,-4.6985,-4.7117,-4.7062,-4.7058,-4.7034,-4.7038,-4.7116,-4.71,-4.7052,-4.7045,-4.7052,-4.7092,-4.7114,-4.712,-4.7243,-4.7122,-4.7127,-4.7131,-4.7134,-4.7478,-4.7483,0,0,0,0,0,0,-4.6974,-4.6982,-4.7115,-4.7118,-4.7004,-4.7041,-4.7046,-4.7082,-4.7099,-4.7096,-4.7056,-4.7048,-4.7105,-4.7113,-4.7122,-4.7283,-4.7129,-4.7135,-4.7138,-4.7473,-4.7479,-4.7485,0,0,0,0,0,0,-4.697,-4.6987,-4.7113,-4.7048,-4.7062,-4.7049,-4.7091,-4.7086,-4.7108,-4.7102,-4.7098,-4.7082,-4.7102,-4.7113,-4.721,-4.7284,-4.7138,-4.7143,-4.7467,-4.7475,-4.7482,-4.7607,0,0,0,0,0,0,-4.6965,-4.6986,-4.7038,-4.705,-4.7066,-4.7201,-4.7095,-4.709,-4.712,-4.7109,-4.7125,-4.7123,-4.7099,-4.7201,-4.7217,-4.729,-4.7149,-4.746,-4.747,-4.7479,-4.7596,-4.7618,-4.7637,0,0,0,0,0,-4.6959,-4.7071,-4.7042,-4.7058,-4.7132,-4.7206,-4.7215,-4.7185,-4.7126,-4.7178,-4.7174,-4.7123,-4.7273,-4.7212,-4.7228,-4.7305,-4.7455,-4.7467,-4.7479,-4.7587,-4.7614,-4.7636,0,0,0,0,0,0,-4.7068,-4.7072,-4.7039,-4.7159,-4.7183,-4.7189,-4.7254,-4.7214,-4.7255,-4.7243,-4.7203,-4.7207,-4.7313,-4.7318,-4.725,-4.7438,-4.7354,-4.737,-4.7431,-4.7456,-4.7476,-4.7473,-4.7154,0,0,0,0,0,-4.7106,-4.7167,-4.7166,-4.7272,-4.7286,-4.7268,-4.7299,-4.7274,-4.7297,-4.7306,-4.7309,-4.7333,-4.7385,-4.7421,-4.7468,-4.7596,-4.7598,-4.7657,-4.7677,-4.7694,-4.7708,-4.7776,-4.7802,-4.7523,-4.7523,-4.7523,0,0,-4.7185,-4.7195,-4.7235,-4.7294,-4.731,-4.7372,-4.7277,-4.7348,-4.7394,-4.7317,-4.7409,-4.7412,-4.7436,-4.7549,-4.7599,-4.7557,-4.7785,-4.7709,-4.7722,-4.7728,-4.7791,-4.7817,-4.784,-4.7531,-4.753,-4.7529,0,0,-4.7361,-4.7375,-4.7464,-4.7482,-4.7507,-4.7494,-4.7516,-4.7528,-4.7528,-4.762,-4.7563,-4.7616,-4.7708,-4.7727,-4.7749,-4.7931,-4.7886,-4.7948,-4.8054,-4.8121,-4.8143,-4.8162,-4.8227,-4.8251,-4.7962,-4.7962,-4.7962,0,-4.7457,-4.755,-4.7515,-4.759,-4.7617,-4.755,-4.764,-4.7658,-4.7698,-4.7718,-4.767,-4.7782,-4.7794,-4.791,-4.7955,-4.7975,-4.7997,-4.7946,-4.8142,-4.8161,-4.8179,-4.8241,-4.8265,-4.797,-4.7969,-4.7968,-4.7967,0,-4.7665,-4.7731,-4.78,-4.784,-4.7875,-4.7957,-4.7934,-4.7973,-4.7944,-4.7937,-4.8031,-4.8042,-4.809,-4.8116,-4.8088,-4.8229,-4.8202,-4.8149,-4.8064,-4.8213,-4.8271,-4.8294,-4.798,-4.7978,-4.7975,-4.7974,0,0,-4.7913,-4.7933,-4.7959,-4.7976,-4.7998,-4.8048,-4.8126,-4.8174,-4.8208,-4.8237,-4.8302,-4.838,-4.8331,-4.8356,-4.8329,-4.8388,-4.8532,-4.8327,-4.8327,-4.8365,-4.8687,-4.8727,-4.8755,-4.8501,-4.8505,-4.8509,-4.8685,0,-4.8088,-4.8224,-4.8195,-4.8328,-4.8388,-4.8325,-4.8393,-4.8413,-4.8408,-4.8457,-4.845,-4.8507,-4.8438,-4.8453,-4.8507,-4.8503,-4.8596,-4.8489,-4.856,-4.8563,-4.8558,-4.8785,-4.8828,-4.8994,-4.8707,-4.8711,-4.8714,0,-4.8311,-4.8349,-4.8489,-4.8501,-4.8525,-4.8587,-4.8629,-4.8676,-4.8698,-4.869,-4.8718,-4.868,-4.8756,-4.867,-4.8775,-4.8703,-4.873,-4.8732,-4.8738,-4.8744,-4.8648,-4.8798,-4.9046,-4.9071,-4.8749,-4.8746,-4.8743,0,-4.8479,-4.8564,-4.8659,-4.8676,-4.8692,-4.8737,-4.8746,-4.8763,-4.8793,-4.8829,-4.8848,-4.8892,-4.8917,-4.8951,-4.8926,-4.8866,-4.9035,-4.8947,-4.9031,-4.9031,-4.907,-4.9068,-4.9326,-4.9087,-4.9086,-4.9086,-4.9085,0,-4.8678,-4.8766,-4.8734,-4.8793,-4.8889,-4.8854,-4.895,-4.8951,-4.8966,-4.9023,-4.897,-4.9025,-4.8988,-4.9039,-4.9019,-4.9109,-4.912,-4.9115,-4.9109,-4.9121,-4.9122,-4.9138,-4.9126,-4.9092,-4.9091,-4.909,-4.9088,0,-4.8882,-4.8864,-4.8963,-4.897,-4.8974,-4.9045,-4.9051,-4.9105,-4.9095,-4.9167,-4.9182,-4.9167,-4.9224,-4.9202,-4.9263,-4.9249,-4.9364,-4.9343,-4.9358,-4.9352,-4.9437,-4.943,-4.9716,-4.9752,-4.9489,-4.9491,-4.9493,0,-4.9011,-4.9077,-4.9091,-4.9126,-4.9139,-4.9195,-4.9226,-4.9193,-4.9228,-4.9257,-4.9307,-4.936,-4.94,-4.9494,-4.9488,-4.9534,-4.9513,-4.961,-4.952,-4.9529,-4.9515,-4.9512,-4.9518,-4.9629,-4.9632,-4.9634,-4.9636,0,-4.9241,-4.9229,-4.9276,-4.9321,-4.936,-4.9393,-4.9421,-4.9452,-4.942,-4.9462,-4.952,-4.9551,-4.9613,-4.9665,-4.9706,-4.9714,-4.967,-4.9665,-4.9686,-4.9699,-4.9705,-4.9703,-4.9408,-4.9658,-4.9656,-4.9655,-4.9653,-4.9652,-4.9412,-4.9468,-4.9487,-4.9541,-4.9559,-4.9586,-4.9637,-4.9634,-4.9682,-4.973,-4.9707,-4.9775,-4.9793,-4.9843,-4.9857,-4.9909,-4.9871,-4.9902,-4.991,-4.9919,-4.993,-4.9696,-4.9916,-4.9915,-4.9915,-4.9914,-4.9913,0,-4.964,-4.9649,-4.9699,-4.9741,-4.9783,-4.9738,-4.9767,-4.9805,-4.9866,-4.9887,-4.9928,-4.9994,-5.0045,-5.0042,-5.0089,-5.013,-5.0112,-5.0144,-5.0141,-5.0143,-4.9961,-4.9938,-5.0158,-5.0158,-5.0158,-5.0158,-5.0158,-5.0158,-4.9764,-4.9856,-4.9846,-4.9946,-4.9954,-5.002,-5.0041,-5.0065,-5.0082,-5.0159,-5.0201,-5.0199,-5.0211,-5.0258,-5.0302,-5.0299,-5.0319,-5.0359,-5.035,-5.018,-5.0156,-5.0133,-5.0111,-5.0364,-5.0364,-5.0527,-5.0529,-5.053]},{"header":{"parameterUnit":"m.s-1","parameterCategory":1,"la1":30.2991,"la2":30.254,"lo1":-89.0895,"lo2":-89.0444,"dy":0.0017,"dx":0.0017,"nx":28,"ny":28,"refTime":"2024-02-29T09:00:00:Z","depth":0,"parameterNumber":3,"parameterNumberName":"V-component_of_WINDS"},"data":[0,0,0,0,0,0,0,0,0,0,0,0,0,0,0,0,0,0,0,0,0,0,0,0,0,0,0,0,0,0,0,0,0,0,0,0,0,0,0,0,0,0,0,0,0,0,0,0,0,0,0,0,0,0,0,0,0,0,-6.3971,-6.3972,0,-6.4054,-6.4055,-6.4056,-6.398,-6.3977,-6.3974,-6.3971,-6.4051,-6.4056,-6.4061,0,0,0,0,0,0,0,0,0,0,0,0,0,-6.3741,-6.3746,-6.3971,-6.3972,-6.3973,-6.4054,-6.4055,-6.4056,-6.3981,-6.3977,-6.3973,-6.397,-6.405,-6.4056,-6.4062,0,0,0,0,0,0,0,0,0,0,0,0,0,-6.3834,-6.3748,-6.397,-6.3945,-6.3944,-6.4053,-6.4055,-6.4056,-6.3982,-6.3977,-6.3973,-6.3968,-6.4048,-6.4055,-6.4062,-6.42,0,0,-6.4085,-6.4088,0,0,0,0,0,0,0,0,-6.3829,-6.3843,-6.3948,-6.3947,-6.3946,-6.4002,-6.4003,-6.4104,-6.3983,-6.3967,-6.3971,-6.3966,-6.4038,-6.4046,-6.4072,-6.4203,-6.4207,-6.4086,-6.409,-6.4093,-6.4096,0,0,0,0,0,0,0,-6.3823,-6.3839,-6.4003,-6.3949,-6.3948,-6.3928,-6.3936,-6.4022,-6.4027,-6.3968,-6.3963,-6.3974,-6.4037,-6.4065,-6.4073,-6.4208,-6.4086,-6.4092,-6.4097,-6.41,-6.4455,-6.446,0,0,0,0,0,0,-6.382,-6.3834,-6.4001,-6.4006,-6.3875,-6.3936,-6.3945,-6.3989,-6.4026,-6.4027,-6.3978,-6.397,-6.4054,-6.4064,-6.4076,-6.4238,-6.4093,-6.41,-6.4105,-6.445,-6.4456,-6.4461,0,0,0,0,0,0,-6.3815,-6.3835,-6.3997,-6.3919,-6.3938,-6.3945,-6.3994,-6.3993,-6.402,-6.4033,-6.4033,-6.4006,-6.4051,-6.4065,-6.4169,-6.424,-6.4104,-6.4111,-6.4444,-6.4452,-6.4459,-6.4565,0,0,0,0,0,0,-6.3809,-6.3834,-6.3888,-6.392,-6.3942,-6.4092,-6.3999,-6.3997,-6.4034,-6.4025,-6.406,-6.4061,-6.4049,-6.4159,-6.4177,-6.4248,-6.4116,-6.4438,-6.4448,-6.4456,-6.4555,-6.4575,-6.4593,0,0,0,0,0,-6.3801,-6.3914,-6.3891,-6.3912,-6.401,-6.4096,-6.4108,-6.4093,-6.404,-6.4093,-6.4101,-6.406,-6.4229,-6.417,-6.419,-6.4264,-6.4433,-6.4445,-6.4456,-6.4547,-6.4572,-6.4592,0,0,0,0,0,0,-6.3887,-6.3917,-6.3893,-6.402,-6.4056,-6.4083,-6.415,-6.412,-6.4171,-6.416,-6.4137,-6.4146,-6.4256,-6.427,-6.4204,-6.4398,-6.4322,-6.4338,-6.4385,-6.4408,-6.4427,-6.4421,-6.4123,0,0,0,0,0,-6.3922,-6.3991,-6.4013,-6.4122,-6.4142,-6.4143,-6.418,-6.4166,-6.4202,-6.4216,-6.4232,-6.4267,-6.4328,-6.4369,-6.4426,-6.4557,-6.4563,-6.4617,-6.4636,-6.4651,-6.4665,-6.4734,-6.4759,-6.4498,-6.4498,-6.4498,0,0,-6.3992,-6.4017,-6.4062,-6.414,-6.4167,-6.4238,-6.4157,-6.4235,-6.4287,-6.4227,-6.4328,-6.434,-6.4378,-6.4496,-6.4549,-6.4512,-6.4738,-6.4665,-6.4677,-6.4683,-6.4749,-6.4773,-6.4795,-6.4506,-6.4504,-6.4503,0,0,-6.4157,-6.4184,-6.4278,-6.4307,-6.4348,-6.4348,-6.4371,-6.4403,-6.441,-6.451,-6.4467,-6.4527,-6.4633,-6.4661,-6.469,-6.4865,-6.4829,-6.4884,-6.4981,-6.5049,-6.507,-6.5088,-6.515,-6.5173,-6.4898,-6.4898,-6.4898,0,-6.4239,-6.4347,-6.433,-6.4412,-6.4447,-6.4398,-6.4492,-6.452,-6.4578,-6.4602,-6.4559,-6.4691,-6.4713,-6.4837,-6.488,-6.4905,-6.4929,-6.488,-6.5068,-6.5086,-6.5103,-6.5162,-6.5186,-6.4904,-6.4904,-6.4903,-6.4902,0,-6.4445,-6.452,-6.4591,-6.465,-6.4692,-6.478,-6.4775,-6.482,-6.4801,-6.4805,-6.4907,-6.4931,-6.4992,-6.502,-6.5002,-6.5142,-6.5117,-6.5072,-6.4995,-6.5135,-6.519,-6.5212,-6.4914,-6.4911,-6.4909,-6.4908,0,0,-6.4668,-6.4716,-6.4743,-6.4769,-6.4811,-6.4867,-6.4952,-6.5013,-6.5052,-6.5093,-6.5162,-6.5253,-6.5211,-6.5244,-6.5228,-6.5288,-6.5425,-6.5235,-6.5235,-6.5269,-6.5579,-6.5613,-6.564,-6.54,-6.5405,-6.5408,-6.5576,0,-6.4834,-6.4984,-6.4971,-6.5112,-6.518,-6.5134,-6.5207,-6.524,-6.5246,-6.5303,-6.5307,-6.5372,-6.5313,-6.5332,-6.5389,-6.5396,-6.5487,-6.5384,-6.5464,-6.5467,-6.5456,-6.5669,-6.5705,-6.5862,-6.5597,-6.5601,-6.5604,0,-6.5049,-6.51,-6.5248,-6.528,-6.5308,-6.5375,-6.5429,-6.5485,-6.552,-6.552,-6.5556,-6.553,-6.5613,-6.5535,-6.5648,-6.5579,-6.561,-6.5619,-6.5624,-6.5631,-6.5544,-6.5681,-6.5912,-6.5936,-6.5637,-6.5635,-6.5632,0,-6.5197,-6.5302,-6.5404,-6.5427,-6.5467,-6.5515,-6.5533,-6.5564,-6.5602,-6.5649,-6.5672,-6.5728,-6.5758,-6.5801,-6.579,-6.5734,-6.5906,-6.5826,-6.5907,-6.5907,-6.5945,-6.5943,-6.6185,-6.5966,-6.5965,-6.5965,-6.5964,0,-6.5385,-6.5477,-6.5471,-6.5534,-6.5635,-6.5618,-6.5719,-6.5731,-6.5759,-6.5822,-6.5784,-6.5844,-6.5825,-6.5884,-6.5875,-6.597,-6.5984,-6.5985,-6.5981,-6.5989,-6.5989,-6.6009,-6.5998,-6.5971,-6.597,-6.5968,-6.5967,0,-6.5567,-6.5567,-6.5675,-6.5704,-6.5713,-6.5787,-6.581,-6.5869,-6.5871,-6.5951,-6.5969,-6.5972,-6.6038,-6.6031,-6.6105,-6.6099,-6.6217,-6.62,-6.6206,-6.6202,-6.6283,-6.6276,-6.6547,-6.6581,-6.634,-6.6342,-6.6344,0,-6.5687,-6.5758,-6.5795,-6.5835,-6.5857,-6.5923,-6.5961,-6.5946,-6.5987,-6.6033,-6.6085,-6.6149,-6.6199,-6.6306,-6.6314,-6.637,-6.6354,-6.6445,-6.6362,-6.6367,-6.6356,-6.6352,-6.6358,-6.6462,-6.6465,-6.6467,-6.6469,0,-6.5901,-6.5897,-6.5955,-6.6013,-6.606,-6.6105,-6.6145,-6.6179,-6.6168,-6.6216,-6.6284,-6.6323,-6.6399,-6.6462,-6.6515,-6.6531,-6.6498,-6.6495,-6.6516,-6.6524,-6.6525,-6.6525,-6.6251,-6.6488,-6.6486,-6.6485,-6.6484,-6.6483,-6.6056,-6.6116,-6.6152,-6.6217,-6.6246,-6.6284,-6.6341,-6.635,-6.6408,-6.647,-6.6457,-6.6534,-6.6566,-6.6634,-6.6656,-6.6714,-6.6681,-6.6712,-6.672,-6.6728,-6.6737,-6.6515,-6.6723,-6.6723,-6.6722,-6.6722,-6.6721,0,-6.6267,-6.6288,-6.6348,-6.6407,-6.6458,-6.6423,-6.6466,-6.651,-6.6579,-6.6613,-6.6663,-6.6741,-6.6802,-6.6814,-6.6872,-6.6916,-6.6902,-6.6932,-6.6928,-6.6932,-6.6764,-6.674,-6.6942,-6.6942,-6.6942,-6.6942,-6.6942,-6.6942,-6.6383,-6.6483,-6.6484,-6.6597,-6.6616,-6.6693,-6.672,-6.6755,-6.6782,-6.6871,-6.6922,-6.693,-6.6955,-6.7014,-6.7068,-6.7069,-6.7092,-6.7128,-6.7124,-6.6966,-6.6944,-6.6923,-6.69,-6.7133,-6.7133,-6.7287,-6.7289,-6.729]}]]